Location: Camp Crooked Creek
(37.9149°N, 85.6607°W)
Time: 02:53:12
(UTC-04:00)

Lacrosse 4 - Visible Passes

Search period start: 29 July 2015 00:00
Search period end: 08 August 2015 00:00
Orbit: 673 x 680 km, 68.0° (Epoch: 25 February)

Date Brightness Start Highest point End Pass type
(mag) Time Alt. Az. Time Alt. Az. Time Alt. Az.
29 Jul 3.4 01:45:42 10° NNW 01:48:26 31° N 01:48:26 31° N visible
30 Jul 3.9 00:41:20 10° N 00:44:18 18° NE 00:44:18 18° NE visible
30 Jul 3.9 02:21:07 10° NW 02:22:35 19° NW 02:22:35 19° NW visible
31 Jul 3.4 01:15:47 10° NNW 01:18:29 31° N 01:18:29 31° N visible
01 Aug 3.9 00:11:27 10° N 00:14:26 18° NE 00:14:26 18° NE visible
01 Aug 3.9 01:51:10 10° NW 01:52:43 20° NW 01:52:43 20° NW visible
02 Aug 3.3 00:45:52 10° NNW 00:48:43 32° N 00:48:43 32° N visible
02 Aug 3.8 23:41:34 10° N 23:44:44 18° NE 23:44:45 18° NE visible
03 Aug 3.8 01:21:13 10° NW 01:23:02 23° NW 01:23:02 23° NW visible
04 Aug 3.1 00:15:57 10° NNW 00:19:07 35° NNE 00:19:07 35° NNE visible
04 Aug 3.7 23:11:41 10° N 23:14:46 17° NE 23:15:13 17° NE visible
05 Aug 3.6 00:51:16 10° NW 00:53:30 27° NW 00:53:30 27° NW visible
05 Aug 2.8 23:46:01 10° NNW 23:49:39 39° NNE 23:49:39 39° NNE visible
06 Aug 4.5 01:27:48 10° WNW 01:27:57 11° WNW 01:27:57 11° WNW visible
06 Aug 3.6 22:41:48 10° N 22:44:49 17° NE 22:45:49 16° ENE visible
07 Aug 3.2 00:21:19 10° NW 00:24:07 33° NW 00:24:07 33° NW visible
07 Aug 2.4 23:16:05 10° NNW 23:20:20 43° NE 23:20:20 43° NE visible
